This is the latest recevied weather packets stored in our database for station/object K2ATL. If no packets are shown the sender has not sent any weather packets the latest 10 day(s).
| Time | Temp. | Humidity | Pressure | Rain* | Wind** | Luminosity | Snow |
|---|---|---|---|---|---|---|---|
| 1787599191 | 27.22° C | 55% | 1103.1 hPa | 0 mm | - | 874 W/m² | - |
| 1787598886 | 27.22° C | 54% | 1103.2 hPa | 0 mm | - | 882 W/m² | - |
| 1787598582 | 27.78° C | 55% | 1103.3 hPa | 0 mm | - | 887 W/m² | - |
| 1787598281 | 27.22° C | 55% | 1103.5 hPa | 0 mm | - | 891 W/m² | - |
| 1787597978 | 27.22° C | 55% | 1103.4 hPa | 0 mm | - | 897 W/m² | - |
| 1787597678 | 26.67° C | 56% | 1103.6 hPa | 0 mm | - | 906 W/m² | - |
| 1787597377 | 26.67° C | 51% | 1103.6 hPa | 0 mm | - | 908 W/m² | - |
| 1787597072 | 27.22° C | 55% | 1103.5 hPa | 0 mm | - | 911 W/m² | - |
| 1787596769 | 26.67° C | 57% | 1103.5 hPa | 0 mm | - | 918 W/m² | - |
| 1787596463 | 25° C | 57% | 1103.6 hPa | 0 mm | - | 924 W/m² | - |
| 1787596159 | 26.67° C | 54% | 1103.6 hPa | 0 mm | - | 926 W/m² | - |
| 1787595855 | 26.11° C | 64% | 1103.6 hPa | 0 mm | - | 918 W/m² | - |
| 1787595550 | 26.11° C | 65% | 1103.6 hPa | 0 mm | - | 929 W/m² | - |
| 1787595246 | 25.56° C | 60% | 1103.7 hPa | 0 mm | - | 926 W/m² | - |
| 1787594946 | 26.11° C | 56% | 1103.9 hPa | 0 mm | - | 926 W/m² | - |
| 1787594646 | 25.56° C | 52% | 1103.8 hPa | 0 mm | - | 929 W/m² | - |
| 1787594344 | 25.56° C | 55% | 1103.6 hPa | 0 mm | - | 927 W/m² | - |
| 1787594039 | 25° C | 66% | 1103.8 hPa | 0 mm | - | 926 W/m² | - |
| 1787593739 | 25.56° C | 55% | 1103.7 hPa | 0 mm | - | 923 W/m² | - |
| 1787593434 | 25.56° C | 48% | 1103.7 hPa | 0 mm | - | 925 W/m² | - |
| 1787593129 | 25° C | 61% | 1103.9 hPa | 0 mm | - | 928 W/m² | - |
| 1787592829 | 25° C | 54% | 1103.9 hPa | 0 mm | - | 922 W/m² | - |
| 1787592524 | 25° C | 57% | 1104 hPa | 0 mm | - | 921 W/m² | - |
| 1787592223 | 25.56° C | 56% | 1103.7 hPa | 0 mm | - | 921 W/m² | - |
| 1787591920 | 25.56° C | 59% | 1103.8 hPa | 0 mm | - | 908 W/m² | - |
* Rain latest hour (hover to see other rain measurements)
** Current wind speed in m/s (hover to see current wind gust speed)